Weather History for KSYF - April, 2014

Change the Weather History Date:

Sunday, April 27, 2014

  Actual Average Record
Temperature  
Mean Temperature 53 °F -  
Max Temperature 66 °F 68 °F 82 °F (2013)
Min Temperature 39 °F 39 °F 37 °F (2013)
Degree Days  
Heating Degree Days 12    
Growing Degree Days 3 (Base 50)    
Moisture  
Dew Point 25 °F    
Average Humidity 44    
Maximum Humidity 88    
Minimum Humidity 9    
Precipitation  
Precipitation 0.00 in - - ()
Sea Level Pressure  
Sea Level Pressure 29.25 in    
Wind  
Wind Speed 13 mph (NW)    
Max Wind Speed 37 mph    
Max Gust Speed 53 mph    
Visibility 9 miles    
Events Rain    
Averages and records for this station are not official NWS values.
T = Trace of Precipitation, MM = Missing Value Source: NWS Daily Summary

Daily Weather History Graph

Daily Weather History Graph

Search for Another Location

Airport or City:

Trip Planner

Search our weather history database for the weather conditions in past years. The results will help you decide how hot, cold, wet, or windy it might be!

Date:

Astronomy

Apr. 27, 2014 Rise Set
Actual Time 6:52 AM CDT 8:37 PM CDT
Civil Twilight 6:23 AM CDT 9:06 PM CDT
Nautical Twilight 5:48 AM CDT 9:41 PM CDT
Astronomical Twilight 5:11 AM CDT 10:19 PM CDT
Moon 5:54 AM CDT (4/27) 7:13 PM CDT (4/27)
Length of Visible Light 14h 42m
Length of Day
13h 44m
Waning Crescent, 3% of the Moon is Illuminated
Apr 27
Waning Crescent
Apr 29
New
May 6
First Quarter
May 14
Full
May 21
Last Quarter

Hourly Weather History & Observations

Time (CDT) Temp. Windchill Dew Point Humidity Pressure Visibility Wind Dir Wind Speed Gust Speed Precip Events Conditions
12:15 AM 67.1 °F - 10.8 °F 11% 29.25 in 10.0 mi South 15.0 mph - N/A   Clear
12:35 AM 65.3 °F - 12.9 °F 13% 29.26 in 10.0 mi South 16.1 mph - N/A   Clear
1:15 AM 63.3 °F - 14.9 °F 15% 29.27 in 10.0 mi SSW 17.3 mph - N/A   Clear
1:35 AM 60.4 °F - 17.2 °F 19% 29.28 in 10.0 mi SSW 16.1 mph - N/A   Clear
1:55 AM 59.0 °F - 19.2 °F 21% 29.27 in 10.0 mi SW 17.3 mph - N/A   Clear
2:15 AM 57.7 °F - 20.7 °F 24% 29.27 in 10.0 mi SW 11.5 mph - N/A   Clear
2:35 AM 56.3 °F - 22.1 °F 27% 29.27 in 10.0 mi SW 10.4 mph - N/A   Clear
2:55 AM 54.9 °F - 23.0 °F 29% 29.25 in 10.0 mi WSW 11.5 mph - N/A   Clear
3:15 AM 53.4 °F - 23.9 °F 32% 29.24 in 10.0 mi WSW 10.4 mph - N/A   Clear
3:35 AM 55.4 °F - 23.9 °F 30% 29.26 in 10.0 mi SSW 11.5 mph - N/A   Clear
3:55 AM 55.9 °F - 26.1 °F 32% 29.26 in 10.0 mi SSW 9.2 mph - N/A   Clear
4:15 AM 53.8 °F - 30.2 °F 41% 29.27 in 10.0 mi South 12.7 mph - N/A   Clear
4:35 AM 52.7 °F - 30.2 °F 42% 29.26 in 10.0 mi SSE 9.2 mph - N/A   Clear
4:55 AM 51.3 °F - 30.4 °F 45% 29.25 in 10.0 mi South 8.1 mph - N/A   Clear
5:15 AM 48.9 °F - 30.6 °F 49% 29.25 in 10.0 mi SSW 4.6 mph - N/A   Clear
5:35 AM 47.3 °F - 32.0 °F 55% 29.25 in 10.0 mi SE 5.8 mph - N/A   Scattered Clouds
5:55 AM 46.9 °F - 32.0 °F 56% 29.25 in 10.0 mi SSE 12.7 mph - N/A   Scattered Clouds
6:15 AM 46.9 °F - 30.6 °F 53% 29.23 in 10.0 mi Calm Calm - N/A   Clear
6:35 AM 44.8 °F 43.3 °F 30.9 °F 58% 29.23 in 10.0 mi WSW 3.5 mph - N/A   Clear
6:55 AM 45.9 °F 43.6 °F 30.2 °F 54% 29.22 in 10.0 mi SW 4.6 mph - N/A   Clear
7:15 AM 46.4 °F 45.2 °F 29.8 °F 53% 29.20 in 10.0 mi WSW 3.5 mph - N/A   Clear
7:35 AM 44.6 °F 43.1 °F 30.2 °F 57% 29.19 in 10.0 mi NW 3.5 mph - N/A   Clear
7:55 AM 44.2 °F - 32.0 °F 62% 29.19 in 10.0 mi Calm Calm - N/A   Clear
8:15 AM 47.1 °F - 32.0 °F 56% 29.17 in 10.0 mi NNE 3.5 mph - N/A   Clear
8:35 AM 48.2 °F - 32.2 °F 54% 29.15 in 10.0 mi NNE 4.6 mph - N/A   Clear
8:55 AM 51.4 °F - 32.0 °F 47% 29.15 in 10.0 mi NE 4.6 mph - N/A   Clear
9:15 AM 54.9 °F - 29.5 °F 38% 29.17 in 10.0 mi SE 6.9 mph - N/A   Clear
9:35 AM 55.4 °F - 28.2 °F 35% 29.18 in 10.0 mi SSE 9.2 mph - N/A   Clear
9:55 AM 57.4 °F - 27.0 °F 31% 29.16 in 10.0 mi East 8.1 mph - N/A   Clear
10:15 AM 59.0 °F - 21.9 °F 24% 29.14 in 10.0 mi ENE 6.9 mph - N/A   Clear
10:35 AM 61.2 °F - 14.4 °F 16% 29.14 in 10.0 mi ESE 9.2 mph 17.3 mph N/A   Clear
10:55 AM 62.1 °F - 13.6 °F 15% 29.13 in 10.0 mi ESE 10.4 mph - N/A   Clear
11:15 AM 61.5 °F - 9.3 °F 13% 29.13 in 10.0 mi East 8.1 mph 23.0 mph N/A   Clear
11:35 AM 62.8 °F - 6.3 °F 11% 29.14 in 10.0 mi ESE 9.2 mph 21.9 mph N/A   Clear
11:55 AM 61.5 °F - 9.9 °F 13% 29.15 in 10.0 mi ESE 6.9 mph 20.7 mph N/A   Clear
12:35 PM 63.1 °F - 9.1 °F 12% 29.15 in 10.0 mi East 8.1 mph - N/A   Clear
12:55 PM 62.4 °F - 7.9 °F 12% 29.15 in 10.0 mi East 5.8 mph 18.4 mph N/A   Clear
1:15 PM 62.8 °F - 9.1 °F 12% 29.15 in 10.0 mi ESE 10.4 mph - N/A   Clear
1:35 PM 63.3 °F - 10.4 °F 13% 29.14 in 10.0 mi ESE 11.5 mph - N/A   Clear
1:55 PM 62.6 °F - 9.0 °F 12% 29.13 in 10.0 mi East 8.1 mph - N/A   Clear
2:15 PM 65.7 °F - 8.2 °F 11% 29.13 in 10.0 mi NE 13.8 mph 18.4 mph N/A   Clear
2:35 PM 63.3 °F - 8.6 °F 12% 29.13 in 10.0 mi NNE 10.4 mph - N/A   Scattered Clouds
2:55 PM 65.5 °F - 5.9 °F 10% 29.13 in 10.0 mi North 9.2 mph 21.9 mph N/A   Scattered Clouds
3:15 PM 65.3 °F - 3.4 °F 9% 29.13 in 10.0 mi ENE 8.1 mph 17.3 mph N/A   Clear
3:35 PM 64.9 °F - 5.7 °F 10% 29.13 in 10.0 mi North 8.1 mph - N/A   Scattered Clouds
3:55 PM 65.7 °F - 7.9 °F 10% 29.13 in 10.0 mi Calm Calm - N/A   Clear
4:15 PM 63.3 °F - 7.3 °F 11% 29.13 in 10.0 mi North 10.4 mph 23.0 mph N/A   Scattered Clouds
4:35 PM 62.6 °F - 9.3 °F 12% 29.15 in 10.0 mi North 9.2 mph - N/A   Mostly Cloudy
5:15 PM 49.3 °F - 37.6 °F 64% 29.23 in 4.0 mi NW 35.7 mph 52.9 mph N/A Rain Light Rain
5:35 PM 48.9 °F - 36.1 °F 61% 29.25 in 7.0 mi NW 36.8 mph 51.8 mph N/A   Mostly Cloudy
5:55 PM 48.0 °F - 36.5 °F 64% 29.29 in 10.0 mi NW 32.2 mph 46.0 mph N/A   Mostly Cloudy
6:15 PM 46.0 °F 37.8 °F 37.6 °F 72% 29.31 in 10.0 mi NW 23.0 mph 34.5 mph N/A   Overcast
6:35 PM 43.9 °F 33.9 °F 38.8 °F 82% 29.33 in 3.0 mi WNW 28.8 mph 35.7 mph N/A Rain Rain
6:55 PM 45.0 °F 36.2 °F 38.1 °F 77% 29.35 in 10.0 mi NW 24.2 mph 34.5 mph N/A Rain Rain
7:15 PM 44.6 °F 36.4 °F 37.8 °F 77% 29.35 in 7.0 mi NW 20.7 mph 39.1 mph N/A Rain Light Rain
7:35 PM 45.0 °F 35.6 °F 36.5 °F 72% 29.36 in 10.0 mi NW 27.6 mph 39.1 mph N/A   Overcast
7:55 PM 44.6 °F 34.2 °F 35.4 °F 70% 29.37 in 10.0 mi NNW 33.4 mph 41.4 mph N/A   Overcast
8:15 PM 43.3 °F 34.2 °F 35.2 °F 73% 29.39 in 10.0 mi NW 23.0 mph 42.6 mph N/A   Overcast
8:35 PM 40.8 °F 30.2 °F 35.8 °F 82% 29.41 in 7.0 mi NW 26.5 mph 40.3 mph N/A Rain Rain
8:55 PM 39.6 °F 28.3 °F 36.0 °F 87% 29.43 in 5.0 mi NNW 27.6 mph 39.1 mph N/A Rain Rain
9:15 PM 39.4 °F 29.5 °F 36.0 °F 88% 29.43 in 4.0 mi NNW 20.7 mph 34.5 mph N/A Rain Light Rain
9:35 PM 40.1 °F 29.5 °F 35.8 °F 85% 29.45 in 10.0 mi NW 25.3 mph 33.4 mph N/A Rain Light Rain
9:55 PM 40.5 °F 31.2 °F 35.6 °F 83% 29.45 in 10.0 mi NW 19.6 mph 28.8 mph N/A   Overcast
10:15 PM 40.3 °F 29.7 °F 35.6 °F 83% 29.46 in 10.0 mi NW 25.3 mph 35.7 mph N/A   Light Drizzle
10:35 PM 40.1 °F 29.9 °F 35.6 °F 84% 29.47 in 10.0 mi NW 23.0 mph 32.2 mph N/A   Overcast
10:55 PM 40.1 °F 29.2 °F 35.2 °F 83% 29.47 in 10.0 mi NW 26.5 mph 33.4 mph N/A   Overcast
11:15 PM 39.4 °F 29.0 °F 35.1 °F 84% 29.47 in 7.0 mi NW 23.0 mph 35.7 mph N/A   Light Drizzle
11:35 PM 39.4 °F 28.7 °F 35.1 °F 84% 29.48 in 10.0 mi NW 24.2 mph 31.1 mph N/A   Light Drizzle
11:55 PM 39.2 °F 28.7 °F 34.9 °F 84% 29.49 in 7.0 mi NW 23.0 mph 33.4 mph N/A Rain Rain